PRIVATE WETTERSTATION BILLIGHEIM-ALLFELD                       ZURCK
Wetterdaten: Samstag, 29.01.2022
Datum Zeit Temp. A. Temp. A. min Temp. A. max Feuchte A. Luftdruck Regen Wind Richtung Richtung Sonnenschein ET Solar Taupunkt Windchill Windben Empfang
29.01.2022 00:00 2,2 C 2,2 C 2,3 C 92 % 1033,9 hPa 0,0 l/m 4,8 km/h (1 Bft) S-SW 202 0 min 0,000 mm 0 W/m 1,0 C 2,2 C 14,5 km/h (3 Bft) 100 %
29.01.2022 00:10 2,1 C 2,1 C 2,2 C 92 % 1033,9 hPa 0,0 l/m 1,6 km/h (1 Bft) S-SW 202 0 min 0,000 mm 0 W/m 0,9 C 2,1 C 9,7 km/h (2 Bft) 100 %
29.01.2022 00:20 2,0 C 2,0 C 2,1 C 92 % 1033,8 hPa 0,0 l/m 4,8 km/h (1 Bft) SW 225 0 min 0,000 mm 0 W/m 0,8 C 2,0 C 9,7 km/h (2 Bft) 100 %
29.01.2022 00:30 2,0 C 2,0 C 2,0 C 92 % 1033,7 hPa 0,0 l/m 6,4 km/h (2 Bft) SW 225 0 min 0,000 mm 0 W/m 0,8 C 2,0 C 19,3 km/h (3 Bft) 100 %
29.01.2022 00:40 2,0 C 1,9 C 2,0 C 92 % 1033,6 hPa 0,0 l/m 4,8 km/h (1 Bft) SW 225 0 min 0,000 mm 0 W/m 0,8 C 2,0 C 16,1 km/h (3 Bft) 100 %
29.01.2022 00:50 1,9 C 1,9 C 1,9 C 92 % 1033,6 hPa 0,0 l/m 6,4 km/h (2 Bft) SW 225 0 min 0,000 mm 0 W/m 0,7 C 1,9 C 17,7 km/h (3 Bft) 99 %
29.01.2022 01:00 1,9 C 1,9 C 1,9 C 92 % 1033,7 hPa 0,0 l/m 6,4 km/h (2 Bft) SW 225 0 min 0,000 mm 0 W/m 0,7 C 1,9 C 20,9 km/h (4 Bft) 92 %
29.01.2022 01:10 1,9 C 1,9 C 1,9 C 92 % 1033,6 hPa 0,0 l/m 4,8 km/h (1 Bft) SW 225 0 min 0,000 mm 0 W/m 0,7 C 1,9 C 14,5 km/h (3 Bft) 100 %
29.01.2022 01:20 1,8 C 1,8 C 1,9 C 92 % 1033,2 hPa 0,0 l/m 1,6 km/h (1 Bft) S-SW 202 0 min 0,000 mm 0 W/m 0,6 C 1,8 C 9,7 km/h (2 Bft) 100 %
29.01.2022 01:30 1,8 C 1,8 C 1,8 C 93 % 1033,1 hPa 0,0 l/m 3,2 km/h (1 Bft) SW 225 0 min 0,000 mm 0 W/m 0,8 C 1,8 C 9,7 km/h (2 Bft) 100 %
29.01.2022 01:40 1,8 C 1,8 C 1,8 C 93 % 1033,1 hPa 0,0 l/m 3,2 km/h (1 Bft) SW 225 0 min 0,000 mm 0 W/m 0,8 C 1,8 C 14,5 km/h (3 Bft) 100 %
29.01.2022 01:50 1,7 C 1,7 C 1,8 C 93 % 1032,9 hPa 0,0 l/m 3,2 km/h (1 Bft) SW 225 0 min 0,000 mm 0 W/m 0,7 C 1,7 C 9,7 km/h (2 Bft) 100 %
29.01.2022 02:00 1,7 C 1,7 C 1,7 C 93 % 1032,7 hPa 0,0 l/m 3,2 km/h (1 Bft) S-SW 202 0 min 0,000 mm 0 W/m 0,7 C 1,7 C 11,3 km/h (2 Bft) 100 %
29.01.2022 02:10 1,7 C 1,7 C 1,7 C 93 % 1032,9 hPa 0,0 l/m 1,6 km/h (1 Bft) SW 225 0 min 0,000 mm 0 W/m 0,7 C 1,7 C 8,0 km/h (2 Bft) 100 %
29.01.2022 02:20 1,8 C 1,7 C 1,8 C 92 % 1033,0 hPa 0,0 l/m 6,4 km/h (2 Bft) W-SW 247 0 min 0,000 mm 0 W/m 0,6 C 1,8 C 16,1 km/h (3 Bft) 100 %
29.01.2022 02:30 1,9 C 1,8 C 1,9 C 92 % 1032,9 hPa 0,0 l/m 4,8 km/h (1 Bft) W-SW 247 0 min 0,000 mm 0 W/m 0,7 C 1,9 C 14,5 km/h (3 Bft) 100 %
29.01.2022 02:40 1,9 C 1,9 C 1,9 C 92 % 1032,7 hPa 0,0 l/m 3,2 km/h (1 Bft) W-SW 247 0 min 0,000 mm 0 W/m 0,7 C 1,9 C 16,1 km/h (3 Bft) 100 %
29.01.2022 02:50 2,0 C 1,9 C 2,0 C 92 % 1032,6 hPa 0,0 l/m 6,4 km/h (2 Bft) W-SW 247 0 min 0,000 mm 0 W/m 0,8 C 2,0 C 17,7 km/h (3 Bft) 100 %
29.01.2022 03:00 2,0 C 2,0 C 2,0 C 92 % 1032,4 hPa 0,0 l/m 4,8 km/h (1 Bft) W-SW 247 0 min 0,000 mm 0 W/m 0,8 C 2,0 C 16,1 km/h (3 Bft) 100 %
29.01.2022 03:10 2,0 C 2,0 C 2,0 C 92 % 1032,0 hPa 0,0 l/m 3,2 km/h (1 Bft) W-SW 247 0 min 0,000 mm 0 W/m 0,8 C 2,0 C 16,1 km/h (3 Bft) 100 %
29.01.2022 03:20 1,9 C 1,9 C 2,0 C 92 % 1031,7 hPa 0,0 l/m 4,8 km/h (1 Bft) SW 225 0 min 0,000 mm 0 W/m 0,7 C 1,9 C 14,5 km/h (3 Bft) 100 %
29.01.2022 03:30 1,8 C 1,8 C 1,9 C 92 % 1031,6 hPa 0,0 l/m 6,4 km/h (2 Bft) SW 225 0 min 0,000 mm 0 W/m 0,6 C 1,8 C 16,1 km/h (3 Bft) 100 %
29.01.2022 03:40 1,8 C 1,8 C 1,9 C 92 % 1031,4 hPa 0,0 l/m 8,0 km/h (2 Bft) S-SW 202 0 min 0,000 mm 0 W/m 0,6 C 0,2 C 16,1 km/h (3 Bft) 100 %
29.01.2022 03:50 1,8 C 1,8 C 1,8 C 92 % 1031,3 hPa 0,0 l/m 6,4 km/h (2 Bft) S-SW 202 0 min 0,000 mm 0 W/m 0,6 C 1,8 C 14,5 km/h (3 Bft) 100 %
29.01.2022 04:00 1,8 C 1,8 C 1,8 C 92 % 1031,4 hPa 0,0 l/m 6,4 km/h (2 Bft) S-SW 202 0 min 0,000 mm 0 W/m 0,6 C 1,8 C 17,7 km/h (3 Bft) 100 %
29.01.2022 04:10 1,8 C 1,8 C 1,8 C 92 % 1031,2 hPa 0,0 l/m 3,2 km/h (1 Bft) S-SW 202 0 min 0,000 mm 0 W/m 0,6 C 1,8 C 14,5 km/h (3 Bft) 100 %
29.01.2022 04:20 1,7 C 1,7 C 1,8 C 92 % 1031,1 hPa 0,0 l/m 6,4 km/h (2 Bft) S-SW 202 0 min 0,000 mm 0 W/m 0,5 C 1,7 C 16,1 km/h (3 Bft) 100 %
29.01.2022 04:30 1,7 C 1,7 C 1,7 C 92 % 1031,1 hPa 0,0 l/m 8,0 km/h (2 Bft) S-SW 202 0 min 0,000 mm 0 W/m 0,5 C 0,1 C 17,7 km/h (3 Bft) 100 %
29.01.2022 04:40 1,6 C 1,6 C 1,7 C 92 % 1031,0 hPa 0,0 l/m 8,0 km/h (2 Bft) S-SW 202 0 min 0,000 mm 0 W/m 0,4 C 0,0 C 17,7 km/h (3 Bft) 100 %
29.01.2022 04:50 1,6 C 1,6 C 1,6 C 92 % 1030,8 hPa 0,0 l/m 9,7 km/h (2 Bft) S-SW 202 0 min 0,000 mm 0 W/m 0,4 C -1,4 C 17,7 km/h (3 Bft) 100 %
29.01.2022 05:00 1,6 C 1,6 C 1,6 C 92 % 1030,7 hPa 0,0 l/m 6,4 km/h (2 Bft) S-SW 202 0 min 0,000 mm 0 W/m 0,4 C 1,6 C 16,1 km/h (3 Bft) 100 %
29.01.2022 05:10 1,6 C 1,5 C 1,6 C 92 % 1030,4 hPa 0,0 l/m 8,0 km/h (2 Bft) S-SW 202 0 min 0,000 mm 0 W/m 0,4 C 0,0 C 17,7 km/h (3 Bft) 100 %
29.01.2022 05:20 1,5 C 1,5 C 1,6 C 92 % 1030,6 hPa 0,0 l/m 6,4 km/h (2 Bft) S-SW 202 0 min 0,000 mm 0 W/m 0,3 C 1,5 C 17,7 km/h (3 Bft) 100 %
29.01.2022 05:30 1,5 C 1,4 C 1,5 C 92 % 1030,7 hPa 0,0 l/m 6,4 km/h (2 Bft) S-SW 202 0 min 0,000 mm 0 W/m 0,3 C 1,5 C 14,5 km/h (3 Bft) 100 %
29.01.2022 05:40 1,6 C 1,5 C 1,6 C 92 % 1030,8 hPa 0,0 l/m 6,4 km/h (2 Bft) S-SW 202 0 min 0,000 mm 0 W/m 0,4 C 1,6 C 17,7 km/h (3 Bft) 100 %
29.01.2022 05:50 1,6 C 1,6 C 1,6 C 92 % 1030,5 hPa 0,0 l/m 8,0 km/h (2 Bft) SW 225 0 min 0,000 mm 0 W/m 0,4 C 0,0 C 17,7 km/h (3 Bft) 100 %
29.01.2022 06:00 1,6 C 1,6 C 1,6 C 92 % 1030,6 hPa 0,0 l/m 8,0 km/h (2 Bft) SW 225 0 min 0,000 mm 0 W/m 0,4 C 0,0 C 20,9 km/h (4 Bft) 100 %
29.01.2022 06:10 1,6 C 1,6 C 1,6 C 92 % 1030,6 hPa 0,0 l/m 8,0 km/h (2 Bft) S-SW 202 0 min 0,000 mm 0 W/m 0,4 C 0,0 C 19,3 km/h (3 Bft) 100 %
29.01.2022 06:20 1,5 C 1,5 C 1,6 C 92 % 1030,2 hPa 0,0 l/m 11,3 km/h (2 Bft) S-SW 202 0 min 0,000 mm 0 W/m 0,3 C -2,8 C 22,5 km/h (4 Bft) 100 %
29.01.2022 06:30 1,5 C 1,5 C 1,5 C 92 % 1030,3 hPa 0,0 l/m 8,0 km/h (2 Bft) S-SW 202 0 min 0,000 mm 0 W/m 0,3 C -0,1 C 24,1 km/h (4 Bft) 100 %
29.01.2022 06:40 1,5 C 1,5 C 1,5 C 92 % 1030,1 hPa 0,0 l/m 9,7 km/h (2 Bft) SW 225 0 min 0,000 mm 0 W/m 0,3 C -1,6 C 25,7 km/h (4 Bft) 100 %
29.01.2022 06:50 1,6 C 1,5 C 1,6 C 92 % 1030,3 hPa 0,0 l/m 8,0 km/h (2 Bft) SW 225 0 min 0,000 mm 0 W/m 0,4 C 0,0 C 20,9 km/h (4 Bft) 100 %
29.01.2022 07:00 1,6 C 1,6 C 1,6 C 92 % 1030,1 hPa 0,0 l/m 12,9 km/h (3 Bft) SW 225 0 min 0,000 mm 0 W/m 0,4 C -3,8 C 32,2 km/h (5 Bft) 100 %
29.01.2022 07:10 1,6 C 1,6 C 1,6 C 92 % 1030,2 hPa 0,0 l/m 8,0 km/h (2 Bft) SW 225 0 min 0,000 mm 0 W/m 0,4 C 0,0 C 20,9 km/h (4 Bft) 100 %
29.01.2022 07:20 1,5 C 1,5 C 1,7 C 92 % 1030,3 hPa 0,0 l/m 6,4 km/h (2 Bft) S-SW 202 0 min 0,000 mm 0 W/m 0,3 C 1,5 C 17,7 km/h (3 Bft) 100 %
29.01.2022 07:30 1,4 C 1,4 C 1,5 C 92 % 1030,2 hPa 0,0 l/m 8,0 km/h (2 Bft) S-SW 202 0 min 0,000 mm 0 W/m 0,2 C -0,2 C 17,7 km/h (3 Bft) 100 %
29.01.2022 07:40 1,4 C 1,4 C 1,4 C 92 % 1030,2 hPa 0,0 l/m 9,7 km/h (2 Bft) SW 225 0 min 0,000 mm 0 W/m 0,2 C -1,7 C 19,3 km/h (3 Bft) 100 %
29.01.2022 07:50 1,4 C 1,4 C 1,4 C 92 % 1030,1 hPa 0,0 l/m 8,0 km/h (2 Bft) SW 225 0 min 0,000 mm 0 W/m 0,2 C -0,2 C 22,5 km/h (4 Bft) 100 %
29.01.2022 08:00 1,4 C 1,4 C 1,4 C 92 % 1030,1 hPa 0,0 l/m 9,7 km/h (2 Bft) SW 225 0 min 0,000 mm 0 W/m 0,2 C -1,7 C 22,5 km/h (4 Bft) 100 %
29.01.2022 08:10 1,4 C 1,4 C 1,4 C 92 % 1030,4 hPa 0,0 l/m 9,7 km/h (2 Bft) SW 225 0 min 0,000 mm 0 W/m 0,2 C -1,7 C 24,1 km/h (4 Bft) 100 %
29.01.2022 08:20 1,4 C 1,4 C 1,4 C 92 % 1030,4 hPa 0,0 l/m 9,7 km/h (2 Bft) SW 225 0 min 0,000 mm 0 W/m 0,2 C -1,7 C 20,9 km/h (4 Bft) 100 %
29.01.2022 08:30 1,4 C 1,4 C 1,4 C 92 % 1030,2 hPa 0,0 l/m 9,7 km/h (2 Bft) SW 225 0 min 0,000 mm 0 W/m 0,2 C -1,7 C 20,9 km/h (4 Bft) 100 %
29.01.2022 08:40 1,4 C 1,4 C 1,4 C 92 % 1030,0 hPa 0,0 l/m 11,3 km/h (2 Bft) SW 225 0 min 0,000 mm 7 W/m 0,2 C -2,9 C 25,7 km/h (4 Bft) 100 %
29.01.2022 08:50 1,4 C 1,4 C 1,4 C 93 % 1030,0 hPa 0,0 l/m 11,3 km/h (2 Bft) SW 225 0 min 0,000 mm 12 W/m 0,4 C -2,9 C 25,7 km/h (4 Bft) 100 %
29.01.2022 09:00 1,4 C 1,4 C 1,4 C 93 % 1029,9 hPa 0,0 l/m 11,3 km/h (2 Bft) SW 225 0 min 0,000 mm 12 W/m 0,4 C -2,9 C 25,7 km/h (4 Bft) 100 %
29.01.2022 09:10 1,4 C 1,4 C 1,4 C 93 % 1029,8 hPa 0,0 l/m 11,3 km/h (2 Bft) SW 225 0 min 0,000 mm 11 W/m 0,4 C -2,9 C 24,1 km/h (4 Bft) 100 %
29.01.2022 09:20 1,4 C 1,4 C 1,4 C 93 % 1029,8 hPa 0,0 l/m 9,7 km/h (2 Bft) SW 225 0 min 0,000 mm 12 W/m 0,4 C -1,7 C 22,5 km/h (4 Bft) 100 %
29.01.2022 09:30 1,4 C 1,4 C 1,4 C 93 % 1029,7 hPa 0,0 l/m 11,3 km/h (2 Bft) SW 225 0 min 0,000 mm 18 W/m 0,4 C -2,9 C 24,1 km/h (4 Bft) 100 %
29.01.2022 09:40 1,5 C 1,4 C 1,5 C 93 % 1029,7 hPa 0,0 l/m 14,5 km/h (3 Bft) SW 225 0 min 0,000 mm 28 W/m 0,5 C -4,9 C 29,0 km/h (5 Bft) 100 %
29.01.2022 09:50 1,5 C 1,4 C 1,5 C 93 % 1029,6 hPa 0,0 l/m 12,9 km/h (3 Bft) SW 225 0 min 0,000 mm 28 W/m 0,5 C -3,9 C 32,2 km/h (5 Bft) 100 %
29.01.2022 10:00 1,6 C 1,5 C 1,6 C 93 % 1029,6 hPa 0,0 l/m 8,0 km/h (2 Bft) W-SW 247 0 min 0,000 mm 30 W/m 0,6 C 0,0 C 27,4 km/h (4 Bft) 100 %
29.01.2022 10:10 1,6 C 1,5 C 1,6 C 93 % 1029,5 hPa 0,0 l/m 9,7 km/h (2 Bft) SW 225 0 min 0,000 mm 37 W/m 0,6 C -1,4 C 24,1 km/h (4 Bft) 100 %
29.01.2022 10:20 1,6 C 1,6 C 1,6 C 93 % 1029,4 hPa 0,0 l/m 8,0 km/h (2 Bft) SW 225 0 min 0,000 mm 39 W/m 0,6 C 0,0 C 27,4 km/h (4 Bft) 100 %
29.01.2022 10:30 1,7 C 1,6 C 1,7 C 93 % 1029,4 hPa 0,0 l/m 8,0 km/h (2 Bft) W-SW 247 0 min 0,000 mm 42 W/m 0,7 C 0,1 C 33,8 km/h (5 Bft) 100 %
29.01.2022 10:40 1,7 C 1,7 C 1,8 C 93 % 1029,4 hPa 0,0 l/m 12,9 km/h (3 Bft) W-SW 247 0 min 0,000 mm 54 W/m 0,7 C -3,6 C 38,6 km/h (5 Bft) 100 %
29.01.2022 10:50 1,8 C 1,7 C 1,9 C 93 % 1029,3 hPa 0,0 l/m 8,0 km/h (2 Bft) W-SW 247 0 min 0,000 mm 56 W/m 0,8 C 0,2 C 24,1 km/h (4 Bft) 99 %
29.01.2022 11:00 2,0 C 1,9 C 2,0 C 93 % 1029,2 hPa 0,0 l/m 12,9 km/h (3 Bft) W-SW 247 0 min 0,025 mm 56 W/m 1,0 C -3,3 C 29,0 km/h (5 Bft) 100 %
29.01.2022 11:10 2,1 C 2,0 C 2,1 C 93 % 1029,2 hPa 0,0 l/m 14,5 km/h (3 Bft) W-SW 247 0 min 0,000 mm 65 W/m 1,1 C -4,2 C 40,2 km/h (6 Bft) 99 %
29.01.2022 11:20 2,1 C 2,1 C 2,1 C 93 % 1029,2 hPa 0,0 l/m 12,9 km/h (3 Bft) W-SW 247 0 min 0,000 mm 88 W/m 1,1 C -3,2 C 35,4 km/h (5 Bft) 100 %
29.01.2022 11:30 2,2 C 2,1 C 2,2 C 93 % 1029,0 hPa 0,0 l/m 9,7 km/h (2 Bft) W-SW 247 0 min 0,000 mm 83 W/m 1,2 C -0,8 C 24,1 km/h (4 Bft) 100 %
29.01.2022 11:50 2,4 C 2,1 C 2,4 C 93 % 1029,1 hPa 0,0 l/m 9,8 km/h (2 Bft) W 259 0 min 0,000 mm 86 W/m 1,4 C -0,6 C 32,2 km/h (5 Bft) 99 %
29.01.2022 12:00 2,5 C 2,4 C 2,5 C 93 % 1028,7 hPa 0,0 l/m 10,9 km/h (2 Bft) W-SW 244 0 min 0,026 mm 90 W/m 1,5 C -1,4 C 33,8 km/h (5 Bft) 100 %
29.01.2022 12:10 2,6 C 2,5 C 2,6 C 92 % 1028,7 hPa 0,0 l/m 19,0 km/h (3 Bft) W-SW 239 0 min 0,000 mm 128 W/m 1,4 C -5,8 C 48,3 km/h (6 Bft) 100 %
29.01.2022 12:20 2,7 C 2,6 C 2,7 C 92 % 1028,6 hPa 0,0 l/m 21,4 km/h (4 Bft) W 259 0 min 0,000 mm 90 W/m 1,5 C -6,7 C 40,2 km/h (6 Bft) 100 %
29.01.2022 12:30 2,7 C 2,7 C 2,7 C 92 % 1028,5 hPa 0,0 l/m 15,2 km/h (3 Bft) SW 229 0 min 0,000 mm 98 W/m 1,5 C -3,8 C 40,2 km/h (6 Bft) 91 %
29.01.2022 12:40 2,8 C 2,7 C 2,8 C 92 % 1028,6 hPa 0,0 l/m 13,3 km/h (3 Bft) W-SW 249 0 min 0,000 mm 49 W/m 1,6 C -2,6 C 35,4 km/h (5 Bft) 100 %
29.01.2022 12:50 2,8 C 2,8 C 2,8 C 92 % 1028,4 hPa 0,0 l/m 14,2 km/h (3 Bft) W-SW 250 0 min 0,000 mm 44 W/m 1,6 C -3,1 C 35,4 km/h (5 Bft) 100 %
29.01.2022 13:00 2,8 C 2,8 C 2,8 C 92 % 1028,4 hPa 0,0 l/m 15,0 km/h (3 Bft) SW 223 0 min 0,000 mm 63 W/m 1,6 C -3,6 C 37,0 km/h (5 Bft) 100 %
29.01.2022 13:10 2,8 C 2,8 C 2,8 C 92 % 1028,2 hPa 0,0 l/m 14,2 km/h (3 Bft) W 271 0 min 0,051 mm 60 W/m 1,6 C -3,1 C 32,2 km/h (5 Bft) 100 %
29.01.2022 13:20 2,8 C 2,8 C 2,9 C 92 % 1028,0 hPa 0,0 l/m 12,1 km/h (2 Bft) SW 234 0 min 0,000 mm 44 W/m 1,6 C -1,8 C 33,8 km/h (5 Bft) 100 %
29.01.2022 13:30 2,8 C 2,8 C 2,8 C 93 % 1027,8 hPa 0,1 l/m 18,5 km/h (3 Bft) SW 227 0 min 0,000 mm 62 W/m 1,8 C -5,4 C 43,5 km/h (6 Bft) 100 %
29.01.2022 13:40 2,8 C 2,8 C 2,8 C 93 % 1027,6 hPa 0,0 l/m 17,6 km/h (3 Bft) W-SW 247 0 min 0,000 mm 114 W/m 1,8 C -4,9 C 38,6 km/h (5 Bft) 100 %
29.01.2022 13:50 2,8 C 2,8 C 2,8 C 93 % 1027,5 hPa 0,0 l/m 12,2 km/h (2 Bft) W-SW 248 0 min 0,000 mm 69 W/m 1,8 C -1,9 C 30,6 km/h (5 Bft) 100 %
29.01.2022 14:00 2,9 C 2,8 C 2,9 C 93 % 1027,2 hPa 0,0 l/m 15,1 km/h (3 Bft) S-SW 200 0 min 0,025 mm 47 W/m 1,9 C -3,5 C 35,4 km/h (5 Bft) 100 %
29.01.2022 14:10 2,8 C 2,8 C 2,9 C 93 % 1027,1 hPa 0,0 l/m 18,7 km/h (3 Bft) W-SW 248 0 min 0,000 mm 39 W/m 1,8 C -5,4 C 35,4 km/h (5 Bft) 100 %
29.01.2022 14:20 2,8 C 2,8 C 2,9 C 93 % 1027,1 hPa 0,0 l/m 17,1 km/h (3 Bft) SW 217 0 min 0,000 mm 40 W/m 1,8 C -4,7 C 40,2 km/h (6 Bft) 100 %
29.01.2022 14:30 2,8 C 2,8 C 2,9 C 93 % 1026,9 hPa 0,0 l/m 13,0 km/h (3 Bft) SW 226 0 min 0,000 mm 37 W/m 1,8 C -2,4 C 35,4 km/h (5 Bft) 100 %
29.01.2022 14:40 2,9 C 2,8 C 2,9 C 93 % 1026,6 hPa 0,0 l/m 16,0 km/h (3 Bft) W-SW 237 0 min 0,000 mm 37 W/m 1,9 C -4,0 C 37,0 km/h (5 Bft) 100 %
29.01.2022 14:50 2,9 C 2,8 C 2,9 C 93 % 1026,5 hPa 0,0 l/m 18,4 km/h (3 Bft) W-SW 249 0 min 0,000 mm 30 W/m 1,9 C -5,2 C 37,0 km/h (5 Bft) 100 %
29.01.2022 15:00 2,9 C 2,9 C 2,9 C 93 % 1026,5 hPa 0,0 l/m 10,6 km/h (2 Bft) W 266 0 min 0,025 mm 33 W/m 1,9 C -0,7 C 25,7 km/h (4 Bft) 99 %
29.01.2022 15:10 3,1 C 2,9 C 3,1 C 92 % 1026,2 hPa 0,0 l/m 15,3 km/h (3 Bft) SW 231 0 min 0,000 mm 33 W/m 1,9 C -3,4 C 35,4 km/h (5 Bft) 100 %
29.01.2022 15:20 3,1 C 3,0 C 3,1 C 93 % 1026,1 hPa 0,0 l/m 16,7 km/h (3 Bft) SW 233 0 min 0,000 mm 25 W/m 2,1 C -4,1 C 40,2 km/h (6 Bft) 100 %
29.01.2022 15:30 3,2 C 3,1 C 3,2 C 93 % 1026,1 hPa 0,0 l/m 14,7 km/h (3 Bft) SW 223 0 min 0,000 mm 26 W/m 2,2 C -2,9 C 33,8 km/h (5 Bft) 100 %
29.01.2022 15:40 3,3 C 3,2 C 3,3 C 92 % 1026,2 hPa 0,0 l/m 15,0 km/h (3 Bft) W-SW 249 0 min 0,000 mm 16 W/m 2,1 C -3,0 C 32,2 km/h (5 Bft) 100 %
29.01.2022 15:50 3,4 C 3,3 C 3,4 C 92 % 1026,4 hPa 0,0 l/m 14,9 km/h (3 Bft) SW 236 0 min 0,000 mm 11 W/m 2,2 C -2,8 C 35,4 km/h (5 Bft) 100 %
29.01.2022 16:00 3,5 C 3,4 C 3,5 C 92 % 1026,4 hPa 0,0 l/m 16,4 km/h (3 Bft) W-SW 244 0 min 0,026 mm 12 W/m 2,3 C -3,5 C 43,5 km/h (6 Bft) 100 %
29.01.2022 16:10 3,5 C 3,4 C 3,5 C 92 % 1026,4 hPa 0,0 l/m 14,3 km/h (3 Bft) W-SW 252 0 min 0,000 mm 16 W/m 2,3 C -2,4 C 40,2 km/h (6 Bft) 100 %
29.01.2022 16:20 3,6 C 3,5 C 3,6 C 92 % 1026,3 hPa 0,0 l/m 15,2 km/h (3 Bft) W-SW 258 0 min 0,000 mm 14 W/m 2,4 C -2,7 C 35,4 km/h (5 Bft) 100 %
29.01.2022 16:30 3,6 C 3,6 C 3,6 C 92 % 1026,1 hPa 0,0 l/m 11,7 km/h (2 Bft) W 273 0 min 0,000 mm 12 W/m 2,4 C -0,7 C 32,2 km/h (5 Bft) 99 %
29.01.2022 16:40 3,6 C 3,6 C 3,7 C 92 % 1025,7 hPa 0,0 l/m 16,1 km/h (3 Bft) SW 227 0 min 0,000 mm 11 W/m 2,4 C -3,2 C 37,0 km/h (5 Bft) 100 %
29.01.2022 16:50 3,7 C 3,6 C 3,7 C 92 % 1025,7 hPa 0,0 l/m 10,2 km/h (2 Bft) SW 219 0 min 0,000 mm 5 W/m 2,5 C 0,5 C 25,7 km/h (4 Bft) 100 %
29.01.2022 17:00 3,8 C 3,7 C 3,8 C 92 % 1025,7 hPa 0,0 l/m 12,2 km/h (2 Bft) SW 234 0 min 0,025 mm 0 W/m 2,6 C -0,8 C 27,4 km/h (4 Bft) 100 %
29.01.2022 17:10 3,9 C 3,8 C 3,9 C 92 % 1025,5 hPa 0,0 l/m 16,0 km/h (3 Bft) W-SW 238 0 min 0,000 mm 0 W/m 2,7 C -2,8 C 37,0 km/h (5 Bft) 100 %
29.01.2022 17:20 3,9 C 3,9 C 3,9 C 92 % 1025,4 hPa 0,0 l/m 19,2 km/h (3 Bft) SW 220 0 min 0,000 mm 0 W/m 2,7 C -4,3 C 40,2 km/h (6 Bft) 100 %
29.01.2022 17:30 3,9 C 3,9 C 4,0 C 92 % 1025,5 hPa 0,0 l/m 18,1 km/h (3 Bft) W-SW 251 0 min 0,000 mm 0 W/m 2,7 C -3,8 C 41,8 km/h (6 Bft) 99 %
29.01.2022 17:40 4,0 C 3,9 C 4,0 C 92 % 1025,3 hPa 0,0 l/m 19,7 km/h (3 Bft) W-SW 240 0 min 0,000 mm 0 W/m 2,8 C -4,3 C 46,7 km/h (6 Bft) 100 %
29.01.2022 17:50 4,1 C 4,0 C 4,1 C 92 % 1025,4 hPa 0,0 l/m 18,6 km/h (3 Bft) W-SW 241 0 min 0,000 mm 0 W/m 2,9 C -3,7 C 48,3 km/h (6 Bft) 100 %
29.01.2022 18:00 4,1 C 4,0 C 4,1 C 92 % 1025,6 hPa 0,0 l/m 20,1 km/h (4 Bft) W-SW 250 0 min 0,026 mm 0 W/m 2,9 C -4,4 C 41,8 km/h (6 Bft) 100 %
29.01.2022 18:10 4,2 C 4,1 C 4,2 C 91 % 1025,6 hPa 0,0 l/m 18,6 km/h (3 Bft) W-SW 245 0 min 0,000 mm 0 W/m 2,9 C -3,6 C 48,3 km/h (6 Bft) 100 %
29.01.2022 18:20 4,3 C 4,2 C 4,3 C 91 % 1025,9 hPa 0,0 l/m 19,7 km/h (3 Bft) W-SW 241 0 min 0,000 mm 0 W/m 3,0 C -4,0 C 41,8 km/h (6 Bft) 100 %
29.01.2022 18:30 4,3 C 4,3 C 4,3 C 91 % 1026,0 hPa 0,0 l/m 20,6 km/h (4 Bft) W 265 0 min 0,000 mm 0 W/m 3,0 C -4,3 C 43,5 km/h (6 Bft) 100 %
29.01.2022 18:40 4,4 C 4,3 C 4,4 C 91 % 1025,9 hPa 0,0 l/m 15,4 km/h (3 Bft) W 268 0 min 0,000 mm 0 W/m 3,1 C -1,9 C 35,4 km/h (5 Bft) 100 %
29.01.2022 18:50 4,4 C 4,4 C 4,4 C 91 % 1025,9 hPa 0,0 l/m 14,1 km/h (3 Bft) W-SW 245 0 min 0,000 mm 0 W/m 3,1 C -1,2 C 48,3 km/h (6 Bft) 100 %
29.01.2022 19:00 4,5 C 4,4 C 4,5 C 91 % 1026,1 hPa 0,0 l/m 18,5 km/h (3 Bft) SW 225 0 min 0,025 mm 0 W/m 3,2 C -3,2 C 43,5 km/h (6 Bft) 100 %
29.01.2022 19:10 4,5 C 4,5 C 4,5 C 91 % 1026,1 hPa 0,0 l/m 14,7 km/h (3 Bft) SW 218 0 min 0,000 mm 0 W/m 3,2 C -1,4 C 40,2 km/h (6 Bft) 100 %
29.01.2022 19:20 4,6 C 4,5 C 4,6 C 91 % 1025,8 hPa 0,0 l/m 12,6 km/h (3 Bft) W 265 0 min 0,000 mm 0 W/m 3,3 C -0,1 C 35,4 km/h (5 Bft) 100 %
29.01.2022 19:30 4,6 C 4,5 C 4,6 C 91 % 1025,8 hPa 0,0 l/m 13,5 km/h (3 Bft) W 268 0 min 0,000 mm 0 W/m 3,3 C -0,6 C 33,8 km/h (5 Bft) 100 %
29.01.2022 19:40 4,6 C 4,6 C 4,7 C 92 % 1025,7 hPa 0,0 l/m 15,5 km/h (3 Bft) SW 227 0 min 0,000 mm 0 W/m 3,4 C -1,7 C 45,1 km/h (6 Bft) 100 %
29.01.2022 19:50 4,6 C 4,6 C 4,7 C 92 % 1025,6 hPa 0,0 l/m 11,9 km/h (2 Bft) W-SW 240 0 min 0,000 mm 0 W/m 3,4 C 0,4 C 35,4 km/h (5 Bft) 100 %
29.01.2022 20:00 4,5 C 4,5 C 4,6 C 93 % 1025,6 hPa 0,0 l/m 12,2 km/h (2 Bft) SW 223 0 min 0,000 mm 0 W/m 3,5 C 0,1 C 32,2 km/h (5 Bft) 100 %
29.01.2022 20:10 4,5 C 4,5 C 4,5 C 93 % 1025,6 hPa 0,0 l/m 12,9 km/h (3 Bft) S-SW 202 0 min 0,000 mm 0 W/m 3,5 C -0,4 C 33,8 km/h (5 Bft) 100 %
29.01.2022 20:20 4,5 C 4,5 C 4,5 C 93 % 1025,5 hPa 0,0 l/m 11,8 km/h (2 Bft) W 260 0 min 0,000 mm 0 W/m 3,5 C 0,3 C 35,4 km/h (5 Bft) 100 %
29.01.2022 20:30 4,5 C 4,5 C 4,5 C 93 % 1025,5 hPa 0,0 l/m 14,6 km/h (3 Bft) W 275 0 min 0,000 mm 0 W/m 3,5 C -1,3 C 38,6 km/h (5 Bft) 100 %
29.01.2022 20:40 4,5 C 4,5 C 4,6 C 93 % 1025,7 hPa 0,0 l/m 13,5 km/h (3 Bft) W-SW 242 0 min 0,000 mm 0 W/m 3,5 C -0,7 C 48,3 km/h (6 Bft) 91 %
29.01.2022 20:50 4,4 C 4,4 C 4,5 C 93 % 1025,7 hPa 0,0 l/m 14,1 km/h (3 Bft) SW 232 0 min 0,000 mm 0 W/m 3,4 C -1,2 C 41,8 km/h (6 Bft) 100 %
29.01.2022 21:00 4,4 C 4,4 C 4,4 C 93 % 1025,8 hPa 0,0 l/m 12,6 km/h (3 Bft) W 267 0 min 0,000 mm 0 W/m 3,4 C -0,3 C 40,2 km/h (6 Bft) 100 %
29.01.2022 21:10 4,3 C 4,3 C 4,4 C 93 % 1025,6 hPa 0,0 l/m 6,4 km/h (2 Bft) W-SW 247 0 min 0,000 mm 0 W/m 3,3 C 4,3 C 48,3 km/h (6 Bft) 89 %
29.01.2022 21:20 4,3 C 4,3 C 4,3 C 93 % 1025,7 hPa 0,2 l/m 16,1 km/h (3 Bft) W-SW 247 0 min 0,000 mm 0 W/m 3,3 C -2,3 C 46,7 km/h (6 Bft) 100 %
29.01.2022 21:30 4,3 C 4,3 C 4,3 C 93 % 1025,6 hPa 0,0 l/m 12,9 km/h (3 Bft) W-SW 247 0 min 0,000 mm 0 W/m 3,3 C -0,6 C 33,8 km/h (5 Bft) 100 %
29.01.2022 21:40 4,4 C 4,3 C 4,4 C 93 % 1025,8 hPa 0,0 l/m 14,5 km/h (3 Bft) W-SW 247 0 min 0,000 mm 0 W/m 3,4 C -1,4 C 30,6 km/h (5 Bft) 100 %
29.01.2022 21:50 4,4 C 4,4 C 4,4 C 93 % 1025,7 hPa 0,0 l/m 12,9 km/h (3 Bft) W-SW 247 0 min 0,000 mm 0 W/m 3,4 C -0,5 C 32,2 km/h (5 Bft) 100 %
29.01.2022 22:00 4,5 C 4,4 C 4,5 C 93 % 1025,5 hPa 0,0 l/m 14,5 km/h (3 Bft) W-SW 247 0 min 0,000 mm 0 W/m 3,5 C -1,3 C 35,4 km/h (5 Bft) 100 %
29.01.2022 22:10 4,6 C 4,5 C 4,6 C 93 % 1025,5 hPa 0,0 l/m 19,3 km/h (3 Bft) W-SW 247 0 min 0,000 mm 0 W/m 3,6 C -3,4 C 35,4 km/h (5 Bft) 100 %
29.01.2022 22:20 4,6 C 4,6 C 4,6 C 93 % 1025,4 hPa 0,0 l/m 12,9 km/h (3 Bft) W-SW 247 0 min 0,000 mm 0 W/m 3,6 C -0,2 C 33,8 km/h (5 Bft) 100 %
29.01.2022 22:30 4,7 C 4,6 C 4,7 C 93 % 1025,4 hPa 0,0 l/m 9,7 km/h (2 Bft) W-SW 247 0 min 0,000 mm 0 W/m 3,7 C 2,0 C 27,4 km/h (4 Bft) 100 %
29.01.2022 22:40 4,7 C 4,6 C 4,7 C 93 % 1025,3 hPa 0,0 l/m 12,9 km/h (3 Bft) SW 225 0 min 0,000 mm 0 W/m 3,7 C -0,1 C 30,6 km/h (5 Bft) 100 %
29.01.2022 22:50 4,8 C 4,7 C 4,8 C 93 % 1025,3 hPa 0,0 l/m 14,5 km/h (3 Bft) W-SW 247 0 min 0,000 mm 0 W/m 3,8 C -0,9 C 41,8 km/h (6 Bft) 100 %
29.01.2022 23:00 4,7 C 4,7 C 4,8 C 93 % 1025,2 hPa 0,0 l/m 14,5 km/h (3 Bft) W-SW 247 0 min 0,000 mm 0 W/m 3,7 C -1,0 C 38,6 km/h (5 Bft) 100 %
29.01.2022 23:10 4,8 C 4,7 C 4,8 C 93 % 1024,9 hPa 0,0 l/m 17,7 km/h (3 Bft) W-SW 247 0 min 0,000 mm 0 W/m 3,8 C -2,5 C 41,8 km/h (6 Bft) 100 %
29.01.2022 23:20 4,8 C 4,8 C 4,8 C 93 % 1025,0 hPa 0,0 l/m 14,5 km/h (3 Bft) W-SW 247 0 min 0,000 mm 0 W/m 3,8 C -0,9 C 35,4 km/h (5 Bft) 100 %
29.01.2022 23:30 4,8 C 4,8 C 4,8 C 93 % 1024,9 hPa 0,0 l/m 12,9 km/h (3 Bft) SW 225 0 min 0,000 mm 0 W/m 3,8 C -0,0 C 33,8 km/h (5 Bft) 100 %
29.01.2022 23:40 4,8 C 4,8 C 4,8 C 93 % 1024,9 hPa 0,0 l/m 16,1 km/h (3 Bft) W-SW 247 0 min 0,000 mm 0 W/m 3,8 C -1,7 C 40,2 km/h (6 Bft) 100 %
29.01.2022 23:50 4,8 C 4,8 C 4,8 C 93 % 1024,9 hPa 0,0 l/m 11,3 km/h (2 Bft) W-SW 247 0 min 0,000 mm 0 W/m 3,8 C 1,0 C 38,6 km/h (5 Bft) 100 %
_ Min-Zeit 05:30 05:30 07:40 18:10 23:10 - 00:10 - - - - - 07:30 12:20 02:10 21:10
Minimum _ 1,4 C 1,4 C 1,4 C 91 % 1024,9 hPa - 1,6 km/h (1 Bft) - - - - - 0,2 C -6,7 C 8,0 km/h (2 Bft) 89 %
_ Max-Zeit 22:50 23:20 22:50 01:30 00:00 21:20 12:20 - - 00:00 13:10 12:10 22:50 21:10 12:10 00:00
Maximum _ 4,8 C 4,8 C 4,8 C 93 % 1033,9 hPa 0,2 l/m 21,4 km/h
W (4 Bft)
- - 0 min 0,051 mm 128 W/m 3,8 C 4,3 C 48,3 km/h
W-SW (6 Bft)
100 %
Durchschnitt _ 2,8 C 2,7 C 2,8 C 92 % 1028,6 hPa #0,3 l/m 11,4 km/h (2 Bft) SW - #0 min. #0,254 mm 43 W/m 1,7 C -1,1 C 29,1 km/h (5 Bft) 100 %
PRIVATE WETTERSTATION BILLIGHEIM-ALLFELD - www.neckar-odenwald-wetter.de - Holger Sonntag